TimeAKDT,TemperatureF,Dew PointF,Humidity,Sea Level PressureIn,VisibilityMPH,Wind Direction,Wind SpeedMPH,Gust SpeedMPH,PrecipitationIn,Events,Conditions,WindDirDegrees,DateUTC
12:55 AM,53.8,49.6,86,29.42,10.0,Variable,4.6,-,N/A,,Overcast,0,2013-09-03 08:55:00
1:55 AM,50.9,49.3,94,29.40,10.0,Calm,Calm,-,N/A,,Scattered Clouds,0,2013-09-03 09:55:00
2:55 AM,50.0,48.7,95,29.41,10.0,Calm,Calm,-,N/A,,Overcast,0,2013-09-03 10:55:00
3:52 AM,46.4,46.4,100,29.39,1.2,Calm,Calm,-,N/A,,Partly Cloudy,0,2013-09-03 11:52:00
3:55 AM,46.9,46.2,97,29.40,1.0,Calm,Calm,-,N/A,,Partly Cloudy,0,2013-09-03 11:55:00
3:57 AM,48.2,46.4,93,29.40,1.0,Calm,Calm,-,N/A,,Partly Cloudy,0,2013-09-03 11:57:00
3:58 AM,48.2,46.4,93,29.40,1.2,Calm,Calm,-,N/A,,Partly Cloudy,0,2013-09-03 11:58:00
4:04 AM,48.2,48.2,100,29.40,6.0,NNW,3.5,-,N/A,,Partly Cloudy,330,2013-09-03 12:04:00
4:55 AM,46.4,45.9,98,29.40,10.0,Calm,Calm,-,N/A,,Clear,0,2013-09-03 12:55:00
5:16 AM,44.6,44.6,100,29.41,4.0,Variable,3.5,-,N/A,,Clear,0,2013-09-03 13:16:00
5:27 AM,44.6,44.6,100,29.41,6.0,SE,4.6,-,N/A,,Clear,130,2013-09-03 13:27:00
5:55 AM,45.5,45.0,98,29.39,10.0,Calm,Calm,-,N/A,,Clear,0,2013-09-03 13:55:00
6:55 AM,44.2,43.3,97,29.40,10.0,Calm,Calm,-,N/A,,Clear,0,2013-09-03 14:55:00
7:55 AM,45.7,44.8,97,29.39,10.0,Calm,Calm,-,N/A,,Mostly Cloudy,0,2013-09-03 15:55:00
8:55 AM,47.5,46.0,95,29.37,10.0,Calm,Calm,-,N/A,,Partly Cloudy,0,2013-09-03 16:55:00
9:55 AM,50.0,48.2,94,29.36,10.0,Calm,Calm,-,N/A,,Partly Cloudy,0,2013-09-03 17:55:00
10:55 AM,56.1,49.8,79,29.32,10.0,North,3.5,-,0.00,,Scattered Clouds,360,2013-09-03 18:55:00
11:55 AM,61.3,46.6,58,29.31,10.0,Calm,Calm,-,N/A,,Scattered Clouds,0,2013-09-03 19:55:00
12:55 PM,67.1,45.3,45,29.28,10.0,ESE,8.1,-,N/A,,Mostly Cloudy,120,2013-09-03 20:55:00
1:55 PM,70.2,45.1,41,29.26,10.0,ESE,17.3,-,N/A,,Partly Cloudy,120,2013-09-03 21:55:00
2:55 PM,71.4,44.6,38,29.23,10.0,SE,11.5,-,N/A,,Scattered Clouds,130,2013-09-03 22:55:00
3:55 PM,72.1,44.2,37,29.22,10.0,ESE,11.5,-,N/A,,Clear,120,2013-09-03 23:55:00
4:55 PM,70.3,44.2,39,29.21,10.0,SE,8.1,-,N/A,,Clear,130,2013-09-04 00:55:00
5:55 PM,71.1,45.1,39,29.20,10.0,ESE,8.1,-,N/A,,Clear,120,2013-09-04 01:55:00
6:55 PM,68.2,45.7,44,29.19,10.0,East,4.6,-,N/A,,Scattered Clouds,90,2013-09-04 02:55:00
7:55 PM,64.4,48.7,57,29.20,10.0,Calm,Calm,-,N/A,,Scattered Clouds,0,2013-09-04 03:55:00
8:55 PM,57.0,49.6,76,29.27,10.0,West,11.5,20.7,0.02,,Mostly Cloudy,260,2013-09-04 04:55:00
9:55 PM,55.9,50.2,81,29.30,10.0,East,5.8,-,0.00,Rain,Light Rain,80,2013-09-04 05:55:00
10:55 PM,55.0,50.9,86,29.32,10.0,Calm,Calm,-,0.01,Rain,Light Rain,0,2013-09-04 06:55:00
11:55 PM,54.9,46.8,74,29.36,10.0,Calm,Calm,-,0.00,,Mostly Cloudy,0,2013-09-04 07:55:00